Regional Weather Roundup
Issued by NWS Newport/Morehead, NC

Current Version | Previous Version | Graphics & Text | Print | Product List | Glossary On
Versions: 1 2 3 4 5 6 7 8 9 10 11 12 13 14 15 16 17 18 19 20 21 22 23 24 25 26 27 28 29 30 31 32 33 34 35 36 37 38 39 40 41 42 43 44 45 46 47 48 49 50
000 ASUS42 KMHX 020613 RWRMHX WEATHER ROUNDUP FOR EASTERN NORTH CAROLINA NATIONAL WEATHER SERVICE NEWPORT/MOREHEAD CITY NC 200 AM EDT SUN AUG 02 2015 NOTE: "FAIR" INDICATES FEW OR NO CLOUDS BELOW 12,000 FEET WITH NO SIGNIFICANT WEATHER AND/OR OBSTRUCTIONS TO VISIBILITY NCZ015>017-031-032-045>047-102-103-020700- NORTH COAST CITY SKY/WX TMP DP RH WIND PRES REMARKS EDENTON N/A 78 75 90 W5 29.89F ELIZABETH CITY CLEAR 76 75 97 SW6 29.89S KITTY HAWK CLEAR 79 74 87 W6 29.89S MANTEO CLEAR 78 76 91 W8 29.90S $$ NCZ045>047-081-094-103-104-020700- CENTRAL COAST CITY SKY/WX TMP DP RH WIND PRES REMARKS FRISCO PTCLDY 79 75 87 W8 29.90F SWANQUARTER N/A 79 N/A N/A W8G16 29.88S $$ NCZ095-097-098-100-101-020700- SOUTHERN COAST CITY SKY/WX TMP DP RH WIND PRES REMARKS BEAUFORT CLEAR 79 76 90 SW10 29.91S CEDAR ISLAND N/A 79 N/A N/A SW8 29.94S JACKSONVILLE CLEAR 75 72 90 SW3 29.91F PINEY ISLAND CLEAR N/A N/A N/A SW6 29.90F WILMINGTON CLEAR 77 73 87 W6 29.92S $$ NCZ011>013-027>030-043-044-078>080-089-090>093-098-020700- COASTAL PLAIN CITY SKY/WX TMP DP RH WIND PRES REMARKS AHOSKIE CLEAR 66 64 93 CALM 29.90S CLINTON CLEAR 76 75 99 CALM 29.92S ELIZABETHTOWN PTCLDY 77 74 90 CALM 29.91F GOLDSBORO CLEAR 76 75 95 VRB3 29.89F GREENVILLE PTCLDY 73 73 100 SW5 29.93S HAVELOCK CLEAR 75 73 93 SW7 29.92F KENANSVILLE CLEAR 75 73 94 CALM 29.93S KINSTON CLEAR 76 73 91 SW5 29.92S NEW BERN CLEAR 76 72 87 SW5 29.93S RICHLANDS PTCLDY 73 66 78 SW3 29.93S ROCKY MOUNT PTCLDY 69 63 81 CALM 29.91F WASHINGTON CLEAR 76 73 92 SW5 29.91S WHITEVILLE PTCLDY 76 73 88 CALM 29.92S $$ AMZ130-135-150-152-154-156-158-170-250-252-270-ANZ085-086-088-633-658-670-020700- MARINE OBSERVATIONS STATION/POSITION TIME TEMP WIND PRES WAVE SWELL AIR SEA DIR/SP/G HT/PER HT/PER (UTC) (F) (DEG/KT/KT) (MB) (FT/S) (FT/S) CHESAPEAKE LIGHT 0600 80 220/ 12/ 14 1012.5 64 E VA BEACH 0550 80 81 210/ 8/ 10 1011.9 3/ 8 3/ 8 DUCK 0500 81 76 230/ 12/ 14 1011.5 2 E DUCK 0511 79 N/A 2/13 OREGON INLET 0500 80 82 240/ 11/ 13 1012.3 13E OREGON INLT 0500 81 N/A 3/ 8 2/12 HATTERAS CG 0500 79 81 240/ 8/ 11 1012.4 DIAMOND BUOY 0550 82 84 250/ 14/ 17 1012.5 4/ 7 2/ 7 CAPE LOOKOUT 0600 80 260/ 12/ 14 1012.5 BEAUFORT LAB 0500 80 83 250/ 5/ 10 1012.3 30 SE NEW RVR IN NOT AVBL 27 SE WRIGHTSVLE 0500 78 82 250/ 12/ 16 N/A 5 SE WRIGHTSVLE 0508 81 83 230/ 12/ 16 1013.1 225 S CAPE HAT 0550 83 81 220/ 17/ 21 1015.5 7/ 8 2/11 41 SE CHARLESTON 0550 82 84 230/ 12/ 16 1012.6 4/ 7 3/ 7 $$

USA.gov is the U.S. government's official web portal to all federal, state and local government web resources and services.